[[{"header":{"parameterUnit":"m.s-1","parameterCategory":1,"la1":30.2991,"la2":30.254,"lo1":-89.0895,"lo2":-89.0444,"dy":0.0017,"dx":0.0017,"nx":28,"ny":28,"refTime":"2025-05-27T09:00:00:Z","depth":0,"parameterNumber":2,"parameterNumberName":"U-component_of_WINDS"},"data":[0,0,0,0,0,0,0,0,0,0,0,0,0,0,0,0,0,0,0,0,0,0,0,0,0,0,0,0,0,0,0,0,0,0,0,0,0,0,0,0,0,0,0,0,0,0,0,0,0,0,0,0,0,0,0,0,0,0,-0.5809,-0.5809,0,-0.5786,-0.5785,-0.5785,-0.5766,-0.5765,-0.5765,-0.5765,-0.5738,-0.5738,-0.5737,0,0,0,0,0,0,0,0,0,0,0,0,0,-0.5838,-0.5838,-0.581,-0.5809,-0.5809,-0.5786,-0.5785,-0.5785,-0.5766,-0.5765,-0.5765,-0.5765,-0.5738,-0.5738,-0.5737,0,0,0,0,0,0,0,0,0,0,0,0,0,-0.5821,-0.5838,-0.581,-0.5796,-0.5795,-0.5786,-0.5785,-0.5785,-0.5766,-0.5765,-0.5765,-0.5765,-0.5739,-0.5738,-0.5737,-0.5738,0,0,-0.5735,-0.5734,0,0,0,0,0,0,0,0,-0.5822,-0.582,-0.5799,-0.5797,-0.5796,-0.5778,-0.5786,-0.5769,-0.5766,-0.5777,-0.5765,-0.5765,-0.5752,-0.575,-0.5746,-0.5737,-0.5736,-0.5735,-0.5734,-0.5734,-0.5734,0,0,0,0,0,0,0,-0.5823,-0.5821,-0.58,-0.5798,-0.5797,-0.5792,-0.5789,-0.5782,-0.5766,-0.5776,-0.5774,-0.5772,-0.5751,-0.5747,-0.5745,-0.5735,-0.5735,-0.5734,-0.5734,-0.5733,-0.5728,-0.5728,0,0,0,0,0,0,-0.5827,-0.5822,-0.5801,-0.5799,-0.5809,-0.5791,-0.5788,-0.5784,-0.5766,-0.5763,-0.5772,-0.5771,-0.5748,-0.5746,-0.5744,-0.5745,-0.5734,-0.5733,-0.5733,-0.5728,-0.5728,-0.5728,0,0,0,0,0,0,-0.5827,-0.5825,-0.5802,-0.581,-0.5807,-0.5791,-0.5787,-0.5784,-0.578,-0.5763,-0.576,-0.5771,-0.5748,-0.5745,-0.574,-0.5744,-0.5733,-0.5732,-0.5727,-0.5728,-0.5728,-0.5747,0,0,0,0,0,0,-0.5828,-0.5825,-0.5825,-0.581,-0.5807,-0.5798,-0.5787,-0.5784,-0.5779,-0.5777,-0.5761,-0.5759,-0.5747,-0.5742,-0.574,-0.5743,-0.5731,-0.5727,-0.5727,-0.5728,-0.5746,-0.5748,-0.5749,0,0,0,0,0,-0.5829,-0.5831,-0.5825,-0.5823,-0.5807,-0.5799,-0.5796,-0.5784,-0.5779,-0.5779,-0.5769,-0.5759,-0.5744,-0.5741,-0.5739,-0.5742,-0.5726,-0.5727,-0.5728,-0.5745,-0.5747,-0.5749,0,0,0,0,0,0,-0.5845,-0.5828,-0.5822,-0.5819,-0.5811,-0.5795,-0.5795,-0.5787,-0.5779,-0.5778,-0.5763,-0.5759,-0.5756,-0.5748,-0.5746,-0.5743,-0.5734,-0.5734,-0.5748,-0.575,-0.5752,-0.5754,-0.5731,0,0,0,0,0,-0.5849,-0.5844,-0.5829,-0.5828,-0.5824,-0.5811,-0.5806,-0.5798,-0.5788,-0.5784,-0.5774,-0.5764,-0.5758,-0.5753,-0.5746,-0.5745,-0.5741,-0.5746,-0.5748,-0.5749,-0.5749,-0.5749,-0.5751,-0.5731,-0.5731,-0.5731,0,0,-0.5855,-0.5845,-0.5843,-0.5831,-0.5823,-0.5819,-0.5807,-0.5803,-0.5799,-0.5783,-0.5779,-0.5771,-0.5759,-0.5757,-0.5755,-0.575,-0.5755,-0.575,-0.5752,-0.5751,-0.575,-0.5752,-0.5754,-0.5731,-0.5731,-0.5731,0,0,-0.5864,-0.5856,-0.5855,-0.5848,-0.5837,-0.5829,-0.5829,-0.5815,-0.581,-0.5805,-0.5793,-0.5789,-0.5777,-0.577,-0.5765,-0.5775,-0.5765,-0.5773,-0.5782,-0.5783,-0.5784,-0.5786,-0.579,-0.5791,-0.5773,-0.5773,-0.5773,0,-0.5873,-0.5866,-0.5855,-0.5852,-0.5847,-0.5834,-0.5833,-0.5826,-0.5814,-0.5811,-0.5806,-0.5793,-0.5784,-0.578,-0.5783,-0.5779,-0.5778,-0.5774,-0.5785,-0.5786,-0.5787,-0.5791,-0.5793,-0.5774,-0.5774,-0.5774,-0.5774,0,-0.5879,-0.5874,-0.5874,-0.5864,-0.5859,-0.5857,-0.5845,-0.5842,-0.5835,-0.5827,-0.5823,-0.5812,-0.5804,-0.5802,-0.5794,-0.5798,-0.5795,-0.5788,-0.5779,-0.5791,-0.5794,-0.5795,-0.5776,-0.5775,-0.5775,-0.5775,0,0,-0.5895,-0.588,-0.588,-0.5876,-0.5865,-0.5861,-0.5859,-0.5851,-0.5849,-0.5841,-0.5839,-0.5831,-0.5825,-0.5819,-0.5811,-0.5811,-0.582,-0.5804,-0.5803,-0.5808,-0.5825,-0.583,-0.5832,-0.5815,-0.5815,-0.5815,-0.5826,0,-0.5903,-0.5899,-0.5889,-0.5888,-0.5884,-0.5873,-0.5871,-0.5864,-0.5857,-0.5853,-0.5845,-0.584,-0.5832,-0.5828,-0.5828,-0.5819,-0.5824,-0.5818,-0.5813,-0.5813,-0.5816,-0.5833,-0.5838,-0.5849,-0.5827,-0.5827,-0.5827,0,-0.5911,-0.5905,-0.5904,-0.5894,-0.5892,-0.5891,-0.5884,-0.588,-0.5872,-0.5867,-0.5862,-0.5854,-0.5851,-0.5844,-0.584,-0.5837,-0.5834,-0.583,-0.583,-0.5828,-0.582,-0.5832,-0.5851,-0.5853,-0.5829,-0.5829,-0.5828,0,-0.5924,-0.5916,-0.5915,-0.5911,-0.59,-0.5899,-0.5894,-0.5886,-0.5883,-0.5877,-0.5875,-0.5869,-0.5865,-0.5861,-0.5851,-0.5846,-0.5849,-0.584,-0.5845,-0.5845,-0.5845,-0.5845,-0.5864,-0.5844,-0.5844,-0.5843,-0.5843,0,-0.5933,-0.5933,-0.5921,-0.592,-0.5919,-0.5909,-0.5909,-0.5903,-0.5896,-0.5894,-0.5884,-0.5882,-0.5869,-0.5866,-0.5858,-0.5857,-0.5855,-0.5851,-0.5849,-0.5852,-0.5853,-0.585,-0.5849,-0.5844,-0.5844,-0.5844,-0.5844,0,-0.5948,-0.5939,-0.5937,-0.5927,-0.5925,-0.5925,-0.5916,-0.5915,-0.5909,-0.5906,-0.5905,-0.5894,-0.589,-0.588,-0.5873,-0.5868,-0.5869,-0.5865,-0.5872,-0.5871,-0.5876,-0.5876,-0.5893,-0.5895,-0.5874,-0.5874,-0.5874,0,-0.5954,-0.5954,-0.5944,-0.5943,-0.5939,-0.5936,-0.5933,-0.5923,-0.5921,-0.5913,-0.5913,-0.5908,-0.5904,-0.5898,-0.589,-0.5885,-0.5881,-0.5888,-0.588,-0.5883,-0.5881,-0.5881,-0.5882,-0.5889,-0.5889,-0.5889,-0.589,0,-0.5966,-0.5963,-0.5959,-0.5955,-0.5952,-0.5948,-0.5943,-0.5943,-0.5932,-0.593,-0.5926,-0.5923,-0.5917,-0.5913,-0.5907,-0.5902,-0.5894,-0.5893,-0.5893,-0.5896,-0.59,-0.5898,-0.5876,-0.5892,-0.5892,-0.5891,-0.5891,-0.5891,-0.5977,-0.5977,-0.5971,-0.5968,-0.5963,-0.596,-0.5959,-0.5953,-0.595,-0.5945,-0.5939,-0.5937,-0.593,-0.5922,-0.5918,-0.5915,-0.5911,-0.5912,-0.5913,-0.5913,-0.5915,-0.5901,-0.5914,-0.5914,-0.5914,-0.5914,-0.5914,0,-0.5989,-0.5985,-0.5983,-0.5977,-0.5975,-0.5969,-0.5965,-0.5963,-0.5961,-0.5956,-0.5953,-0.595,-0.5946,-0.5938,-0.5934,-0.5934,-0.593,-0.5933,-0.5933,-0.5932,-0.5918,-0.5918,-0.5936,-0.5936,-0.5936,-0.5936,-0.5936,-0.5936,-0.5995,-0.5995,-0.5991,-0.5989,-0.5985,-0.5983,-0.5981,-0.5978,-0.5974,-0.5971,-0.5968,-0.5964,-0.5958,-0.5954,-0.595,-0.5948,-0.5947,-0.5951,-0.5948,-0.5935,-0.5933,-0.5931,-0.5931,-0.5951,-0.5951,-0.5962,-0.5962,-0.5962]},{"header":{"parameterUnit":"m.s-1","parameterCategory":1,"la1":30.2991,"la2":30.254,"lo1":-89.0895,"lo2":-89.0444,"dy":0.0017,"dx":0.0017,"nx":28,"ny":28,"refTime":"2025-05-27T09:00:00:Z","depth":0,"parameterNumber":3,"parameterNumberName":"V-component_of_WINDS"},"data":[0,0,0,0,0,0,0,0,0,0,0,0,0,0,0,0,0,0,0,0,0,0,0,0,0,0,0,0,0,0,0,0,0,0,0,0,0,0,0,0,0,0,0,0,0,0,0,0,0,0,0,0,0,0,0,0,0,0,5.6634,5.6635,0,5.6681,5.6681,5.6682,5.6632,5.663,5.6628,5.6627,5.667,5.6673,5.6676,0,0,0,0,0,0,0,0,0,0,0,0,0,5.6497,5.65,5.6634,5.6635,5.6635,5.6681,5.6681,5.6682,5.6632,5.663,5.6628,5.6626,5.6669,5.6673,5.6676,0,0,0,0,0,0,0,0,0,0,0,0,0,5.6551,5.6501,5.6634,5.6616,5.6615,5.6681,5.6681,5.6682,5.6633,5.663,5.6627,5.6625,5.6668,5.6673,5.6677,5.6761,0,0,5.669,5.6692,0,0,0,0,0,0,0,0,5.6548,5.6557,5.6618,5.6618,5.6616,5.6648,5.6649,5.6708,5.6634,5.6626,5.6626,5.6623,5.6665,5.6669,5.6684,5.6763,5.6765,5.6691,5.6693,5.6695,5.6697,0,0,0,0,0,0,0,5.6545,5.6554,5.6652,5.6619,5.6618,5.6604,5.6609,5.666,5.6661,5.6627,5.6623,5.6629,5.6664,5.668,5.6685,5.6766,5.6691,5.6695,5.6697,5.6699,5.6912,5.6915,0,0,0,0,0,0,5.6544,5.6551,5.6651,5.6654,5.6575,5.6609,5.6614,5.6641,5.666,5.666,5.6632,5.6627,5.6674,5.668,5.6686,5.6783,5.6695,5.6699,5.6702,5.6909,5.6913,5.6916,0,0,0,0,0,0,5.6541,5.6553,5.6649,5.6602,5.6613,5.6614,5.6644,5.6643,5.6659,5.6664,5.6664,5.6649,5.6672,5.668,5.6742,5.6784,5.6701,5.6705,5.6905,5.691,5.6914,5.6979,0,0,0,0,0,0,5.6537,5.6552,5.6586,5.6603,5.6616,5.6706,5.6647,5.6646,5.6667,5.6661,5.668,5.668,5.667,5.6736,5.6747,5.6789,5.6709,5.6901,5.6907,5.6913,5.6974,5.6986,5.6996,0,0,0,0,0,5.6533,5.6602,5.6588,5.66,5.6658,5.6709,5.6716,5.6704,5.6671,5.6703,5.6706,5.6679,5.6778,5.6743,5.6754,5.6798,5.6899,5.6906,5.6912,5.6968,5.6983,5.6996,0,0,0,0,0,0,5.6589,5.6604,5.6588,5.6666,5.6687,5.67,5.6741,5.6721,5.675,5.6743,5.6727,5.6731,5.6797,5.6804,5.6764,5.6879,5.6833,5.6842,5.6872,5.6886,5.6897,5.6892,5.6712,0,0,0,0,0,5.6611,5.6653,5.6663,5.6731,5.6742,5.674,5.6762,5.6751,5.6771,5.6779,5.6786,5.6806,5.684,5.6864,5.6897,5.6975,5.6976,5.7011,5.7022,5.7031,5.7039,5.7077,5.7092,5.6938,5.6938,5.6938,0,0,5.6656,5.6669,5.6697,5.6742,5.6757,5.6798,5.6747,5.6794,5.6823,5.6786,5.6844,5.685,5.687,5.694,5.6971,5.6948,5.7082,5.704,5.7047,5.705,5.7086,5.71,5.7113,5.6943,5.6942,5.6941,0,0,5.6758,5.6774,5.683,5.6846,5.6869,5.6867,5.688,5.6897,5.6899,5.6958,5.693,5.6964,5.7026,5.7041,5.7056,5.7162,5.7137,5.7173,5.7231,5.7269,5.7281,5.7292,5.7326,5.7339,5.7181,5.7182,5.7182,0,5.6811,5.6873,5.6862,5.691,5.6929,5.6898,5.6953,5.6968,5.7,5.7013,5.6988,5.7062,5.7074,5.7145,5.7171,5.7186,5.7198,5.717,5.7281,5.7291,5.7301,5.7333,5.7347,5.7185,5.7185,5.7185,5.7184,0,5.6935,5.6979,5.7021,5.7053,5.7077,5.7129,5.7123,5.7149,5.7136,5.7136,5.7194,5.7207,5.7241,5.7257,5.7245,5.7326,5.7311,5.7284,5.7236,5.732,5.735,5.7363,5.7191,5.719,5.7189,5.7188,0,0,5.7074,5.7098,5.7113,5.7126,5.7148,5.7181,5.723,5.7263,5.7284,5.7307,5.7345,5.7398,5.7372,5.7389,5.7379,5.7412,5.7491,5.738,5.738,5.7398,5.7577,5.7596,5.7611,5.7476,5.7479,5.7481,5.7575,0,5.7174,5.726,5.725,5.7331,5.7369,5.7339,5.7381,5.7398,5.7399,5.743,5.7431,5.7467,5.7432,5.7442,5.7474,5.7475,5.7527,5.7469,5.7509,5.7511,5.7502,5.7627,5.7647,5.7736,5.7587,5.7589,5.759,0,5.7303,5.733,5.7415,5.7429,5.7444,5.7482,5.751,5.7542,5.7559,5.7557,5.7577,5.7559,5.7606,5.756,5.7622,5.7582,5.7599,5.7602,5.7605,5.7606,5.7554,5.7629,5.7764,5.7776,5.761,5.7608,5.7607,0,5.7392,5.745,5.7507,5.7519,5.7538,5.7564,5.7573,5.7588,5.7608,5.7632,5.7644,5.7674,5.769,5.7712,5.7702,5.767,5.7765,5.7719,5.7763,5.7763,5.7782,5.778,5.7918,5.7798,5.7797,5.7797,5.7797,0,5.7503,5.7555,5.7547,5.7582,5.7638,5.7626,5.7681,5.7686,5.77,5.7733,5.771,5.7742,5.7728,5.7759,5.7751,5.7802,5.781,5.7808,5.7805,5.7808,5.7808,5.7817,5.7809,5.7801,5.78,5.7799,5.7799,0,5.7611,5.7608,5.7668,5.768,5.7684,5.7725,5.7734,5.7766,5.7765,5.7808,5.7817,5.7815,5.7849,5.7843,5.7881,5.7876,5.7938,5.7929,5.7932,5.7929,5.7972,5.7966,5.8118,5.8135,5.8006,5.8007,5.8008,0,5.7681,5.772,5.7736,5.7757,5.7768,5.7803,5.7822,5.7811,5.7832,5.7854,5.7882,5.7915,5.794,5.7996,5.7997,5.8025,5.8014,5.8065,5.8018,5.802,5.8011,5.8008,5.801,5.8074,5.8075,5.8077,5.8078,0,5.7805,5.78,5.783,5.7859,5.7884,5.7906,5.7925,5.7944,5.7933,5.7958,5.7993,5.8013,5.8051,5.8082,5.8108,5.8115,5.8094,5.8093,5.8104,5.8106,5.8105,5.8103,5.7954,5.8089,5.8088,5.8087,5.8086,5.8086,5.7893,5.7926,5.7941,5.7974,5.7988,5.8006,5.8036,5.8038,5.8067,5.8098,5.8089,5.8128,5.8142,5.8175,5.8185,5.8214,5.8195,5.8211,5.8215,5.8218,5.8222,5.8103,5.8219,5.8219,5.8218,5.8218,5.8218,0,5.8013,5.8021,5.8052,5.8079,5.8105,5.8084,5.8104,5.8126,5.8161,5.8177,5.8202,5.824,5.827,5.8273,5.8301,5.8324,5.8314,5.8331,5.8328,5.8329,5.824,5.8226,5.8338,5.8338,5.8338,5.8338,5.8338,5.8338,5.8077,5.813,5.8127,5.8185,5.8192,5.8231,5.8243,5.8259,5.8271,5.8316,5.834,5.8343,5.8352,5.838,5.8406,5.8406,5.8416,5.8436,5.8432,5.8348,5.8336,5.8324,5.8311,5.8439,5.8439,5.8518,5.8519,5.8519]}]]